Find Saturnin-1

NORAD ID: 62620 Int'l Des: NNA 2025-009 Owner: VZCR/VZLU Country: CZ operational
LEOCIRCULARRETROGRADESSO

リアルタイム位置

3D地球を読み込み中...

Saturnin-1について

説明を読み込み中...

次回通過

Passes for default location (London). Set your location on the main map for personalized predictions.

高度履歴

Loading altitude history...

軌道要素

1 62620U 25009M 26105.49661720 .00038583 00000-0 63771-3 0 9995
2 62620 97.3933 193.2326 0004654 163.8596 196.2806 15.52125294 69705
Epoch: Apr 15, 2026 • Age: 19 hours

現在のステータス

高度 413.1 km
速度 7.66 km/s
衛星直下点 -12.10°S, 58.37°E
打ち上げ日 Jan 14, 2025
運用期間 1.2 years
タイプ other

技術仕様

分類 Payload
質量 14.00 kg
乾燥質量 14.00 kg
総質量 14.00 kg
長さ 0.30 m
直径 0.20 m
スパン 0.90 m
形状 Box+2 pan
製造者 VZLU
バスタイプ Cubesat 12U
フェーズステータス In Orbit
所有者/国 VZCR/VZLU/CZ

Most Searched